Time,TemperatureF,DewpointF,PressureIn,WindDirection,WindDirectionDegrees,WindSpeedMPH,WindSpeedGustMPH,Humidity,HourlyPrecipIn,Conditions,Clouds,dailyrainin,SoftwareType,DateUTC
2013-10-18 00:00:00,48.3,47.5,30.09,WSW,255,0.0,9.0,97,0.00,,,0.40,Wunderground v.1.15,2013-10-18 04:00:00,
2013-10-18 00:05:00,48.2,47.4,30.09,WSW,255,0.0,9.0,97,0.00,,,0.00,Wunderground v.1.15,2013-10-18 04:05:00,
2013-10-18 00:10:00,48.1,47.3,30.09,WSW,255,0.0,9.0,97,0.00,,,0.00,Wunderground v.1.15,2013-10-18 04:10:00,
2013-10-18 00:15:00,48.1,47.3,30.09,WSW,255,0.0,9.0,97,0.00,,,0.00,Wunderground v.1.15,2013-10-18 04:15:00,
2013-10-18 00:20:00,48.2,47.7,30.09,WSW,255,0.0,9.0,98,0.00,,,0.00,Wunderground v.1.15,2013-10-18 04:20:00,
2013-10-18 00:25:00,48.2,47.7,30.09,WSW,255,0.0,9.0,98,0.00,,,0.00,Wunderground v.1.15,2013-10-18 04:25:00,
2013-10-18 00:35:00,47.9,47.4,30.09,WSW,255,0.0,9.0,98,0.00,,,0.00,Wunderground v.1.15,2013-10-18 04:35:00,
2013-10-18 00:40:00,47.8,47.0,30.09,WSW,255,0.0,9.0,97,0.00,,,0.00,Wunderground v.1.15,2013-10-18 04:40:00,
2013-10-18 00:45:00,47.9,47.4,30.09,WSW,255,0.0,9.0,98,0.00,,,0.00,Wunderground v.1.15,2013-10-18 04:45:00,
2013-10-18 00:50:00,48.0,47.5,30.09,WSW,255,0.0,9.0,98,0.00,,,0.00,Wunderground v.1.15,2013-10-18 04:50:00,
2013-10-18 00:55:00,48.0,47.5,30.09,WSW,255,0.0,9.0,98,0.00,,,0.00,Wunderground v.1.15,2013-10-18 04:55:00,
2013-10-18 01:00:00,48.1,47.6,30.09,WSW,255,0.0,9.0,98,0.00,,,0.00,Wunderground v.1.15,2013-10-18 05:00:00,
2013-10-18 01:05:00,48.1,47.6,30.09,WSW,255,0.0,9.0,98,0.00,,,0.00,Wunderground v.1.15,2013-10-18 05:05:00,
2013-10-18 01:10:00,48.1,47.6,30.09,WSW,255,0.0,9.0,98,0.00,,,0.00,Wunderground v.1.15,2013-10-18 05:10:00,
2013-10-18 01:15:00,48.0,47.5,30.09,WSW,255,0.0,9.0,98,0.00,,,0.00,Wunderground v.1.15,2013-10-18 05:15:00,
2013-10-18 01:20:00,47.9,47.4,30.09,WSW,255,0.0,9.0,98,0.00,,,0.00,Wunderground v.1.15,2013-10-18 05:20:00,
2013-10-18 01:25:00,47.8,47.3,30.09,WSW,255,0.0,9.0,98,0.00,,,0.00,Wunderground v.1.15,2013-10-18 05:25:00,
2013-10-18 01:30:00,47.9,47.4,30.09,WSW,255,0.0,9.0,98,0.00,,,0.00,Wunderground v.1.15,2013-10-18 05:30:00,
2013-10-18 01:40:00,47.8,47.3,30.09,WSW,255,0.0,9.0,98,0.00,,,0.00,Wunderground v.1.15,2013-10-18 05:40:00,
2013-10-18 01:45:00,47.9,47.4,30.09,WSW,255,0.0,9.0,98,0.00,,,0.00,Wunderground v.1.15,2013-10-18 05:45:00,
2013-10-18 01:50:00,47.8,47.3,30.09,WSW,255,0.0,9.0,98,0.00,,,0.00,Wunderground v.1.15,2013-10-18 05:50:00,
2013-10-18 01:55:00,47.7,47.2,30.09,WSW,255,0.0,9.0,98,0.00,,,0.00,Wunderground v.1.15,2013-10-18 05:55:00,
2013-10-18 02:00:00,47.6,47.1,30.09,WSW,255,0.0,9.0,98,0.00,,,0.00,Wunderground v.1.15,2013-10-18 06:00:00,
2013-10-18 02:05:00,47.5,47.0,30.09,WSW,255,0.0,9.0,98,0.00,,,0.00,Wunderground v.1.15,2013-10-18 06:05:00,
2013-10-18 02:10:00,47.3,46.8,30.09,WSW,255,0.0,9.0,98,0.00,,,0.00,Wunderground v.1.15,2013-10-18 06:10:00,
2013-10-18 02:15:00,47.3,46.8,30.10,WSW,255,0.0,9.0,98,0.00,,,0.00,Wunderground v.1.15,2013-10-18 06:15:00,
2013-10-18 02:20:00,47.1,46.6,30.10,WSW,255,0.0,9.0,98,0.00,,,0.00,Wunderground v.1.15,2013-10-18 06:20:00,
2013-10-18 02:25:00,46.9,46.4,30.10,WSW,255,0.0,9.0,98,0.00,,,0.00,Wunderground v.1.15,2013-10-18 06:25:00,
2013-10-18 02:30:00,46.7,46.2,30.10,WSW,255,0.0,9.0,98,0.00,,,0.00,Wunderground v.1.15,2013-10-18 06:30:00,
2013-10-18 02:35:00,46.7,46.2,30.10,WSW,255,0.0,9.0,98,0.00,,,0.00,Wunderground v.1.15,2013-10-18 06:35:00,
2013-10-18 02:40:00,46.7,46.2,30.10,WSW,255,0.0,9.0,98,0.00,,,0.00,Wunderground v.1.15,2013-10-18 06:40:00,
2013-10-18 02:45:00,46.6,46.1,30.10,WSW,255,0.0,9.0,98,0.00,,,0.00,Wunderground v.1.15,2013-10-18 06:45:00,
2013-10-18 02:50:00,46.6,46.1,30.10,WSW,255,0.0,9.0,98,0.00,,,0.00,Wunderground v.1.15,2013-10-18 06:50:00,
2013-10-18 02:55:00,46.5,46.0,30.10,WSW,255,0.0,9.0,98,0.00,,,0.00,Wunderground v.1.15,2013-10-18 06:55:00,
2013-10-18 03:00:00,46.4,45.9,30.10,WSW,255,0.0,9.0,98,0.00,,,0.00,Wunderground v.1.15,2013-10-18 07:00:00,
2013-10-18 03:05:00,46.3,45.8,30.10,WSW,255,0.0,9.0,98,0.00,,,0.00,Wunderground v.1.15,2013-10-18 07:05:00,
2013-10-18 03:09:00,46.3,45.8,30.10,WSW,255,0.0,9.0,98,0.00,,,0.00,Wunderground v.1.15,2013-10-18 07:09:00,
2013-10-18 03:15:00,46.1,45.6,30.10,WSW,255,0.0,9.0,98,0.00,,,0.00,Wunderground v.1.15,2013-10-18 07:15:00,
2013-10-18 03:20:00,46.0,45.5,30.10,WSW,255,0.0,9.0,98,0.00,,,0.00,Wunderground v.1.15,2013-10-18 07:20:00,
2013-10-18 03:24:00,46.1,45.8,30.10,WSW,255,0.0,9.0,99,0.00,,,0.00,Wunderground v.1.15,2013-10-18 07:24:00,
2013-10-18 03:30:00,46.1,45.8,30.10,WSW,255,0.0,9.0,99,0.00,,,0.00,Wunderground v.1.15,2013-10-18 07:30:00,
2013-10-18 03:35:00,45.9,45.4,30.10,WSW,255,0.0,9.0,98,0.00,,,0.00,Wunderground v.1.15,2013-10-18 07:35:00,
2013-10-18 03:40:00,45.7,45.2,30.10,WSW,255,0.0,9.0,98,0.00,,,0.00,Wunderground v.1.15,2013-10-18 07:40:00,
2013-10-18 03:45:00,45.9,45.4,30.10,WSW,255,0.0,9.0,98,0.00,,,0.00,Wunderground v.1.15,2013-10-18 07:45:00,
2013-10-18 03:50:00,45.8,45.5,30.10,WSW,255,0.0,9.0,99,0.00,,,0.00,Wunderground v.1.15,2013-10-18 07:50:00,
2013-10-18 03:55:00,45.8,45.3,30.10,WSW,255,0.0,9.0,98,0.00,,,0.00,Wunderground v.1.15,2013-10-18 07:55:00,
2013-10-18 04:00:00,45.7,45.2,30.10,WSW,255,0.0,9.0,98,0.00,,,0.00,Wunderground v.1.15,2013-10-18 08:00:00,
2013-10-18 04:05:00,45.5,45.2,30.10,WSW,255,0.0,9.0,99,0.00,,,0.00,Wunderground v.1.15,2013-10-18 08:05:00,
2013-10-18 04:10:00,45.1,44.6,30.10,WSW,255,0.0,9.0,98,0.00,,,0.00,Wunderground v.1.15,2013-10-18 08:10:00,
2013-10-18 04:20:00,44.7,44.4,30.10,WSW,255,0.0,9.0,99,0.00,,,0.00,Wunderground v.1.15,2013-10-18 08:20:00,
2013-10-18 04:25:00,44.3,43.8,30.10,WSW,255,0.0,9.0,98,0.00,,,0.00,Wunderground v.1.15,2013-10-18 08:25:00,
2013-10-18 04:30:00,43.8,43.3,30.10,WSW,255,0.0,9.0,98,0.00,,,0.00,Wunderground v.1.15,2013-10-18 08:30:00,
2013-10-18 04:35:00,43.5,43.0,30.10,WSW,255,0.0,9.0,98,0.00,,,0.00,Wunderground v.1.15,2013-10-18 08:35:00,
2013-10-18 04:40:00,43.3,42.8,30.11,WSW,255,0.0,9.0,98,0.00,,,0.00,Wunderground v.1.15,2013-10-18 08:40:00,
2013-10-18 04:45:00,43.1,42.6,30.11,WSW,255,0.0,9.0,98,0.00,,,0.00,Wunderground v.1.15,2013-10-18 08:45:00,
2013-10-18 04:50:00,42.9,42.4,30.11,WSW,255,0.0,9.0,98,0.00,,,0.00,Wunderground v.1.15,2013-10-18 08:50:00,
2013-10-18 04:55:00,42.5,42.0,30.11,WSW,255,0.0,9.0,98,0.00,,,0.00,Wunderground v.1.15,2013-10-18 08:55:00,
2013-10-18 05:00:00,42.2,41.7,30.11,WSW,255,0.0,9.0,98,0.00,,,0.00,Wunderground v.1.15,2013-10-18 09:00:00,
2013-10-18 05:10:00,42.0,41.5,30.11,WSW,255,0.0,9.0,98,0.00,,,0.00,Wunderground v.1.15,2013-10-18 09:10:00,
2013-10-18 05:15:00,42.1,41.8,30.11,WSW,255,0.0,9.0,99,0.00,,,0.00,Wunderground v.1.15,2013-10-18 09:15:00,
2013-10-18 05:20:00,41.8,41.3,30.11,WSW,255,0.0,9.0,98,0.00,,,0.00,Wunderground v.1.15,2013-10-18 09:20:00,
2013-10-18 05:29:00,41.0,40.5,30.12,WSW,255,0.0,9.0,98,0.00,,,0.00,Wunderground v.1.15,2013-10-18 09:29:00,
2013-10-18 05:35:00,40.7,40.2,30.12,WSW,255,0.0,9.0,98,0.00,,,0.00,Wunderground v.1.15,2013-10-18 09:35:00,
2013-10-18 05:40:00,40.6,40.1,30.12,WSW,255,0.0,9.0,98,0.00,,,0.00,Wunderground v.1.15,2013-10-18 09:40:00,
2013-10-18 05:45:00,40.5,40.0,30.12,WSW,255,0.0,9.0,98,0.00,,,0.00,Wunderground v.1.15,2013-10-18 09:45:00,
2013-10-18 05:50:00,40.5,40.2,30.12,WSW,255,0.0,9.0,99,0.00,,,0.00,Wunderground v.1.15,2013-10-18 09:50:00,
2013-10-18 05:55:00,40.5,40.2,30.12,WSW,255,0.0,9.0,99,0.00,,,0.00,Wunderground v.1.15,2013-10-18 09:55:00,
2013-10-18 06:00:00,40.4,40.1,30.12,WSW,255,0.0,9.0,99,0.00,,,0.00,Wunderground v.1.15,2013-10-18 10:00:00,
2013-10-18 06:05:00,40.4,40.1,30.12,WSW,255,0.0,9.0,99,0.00,,,0.00,Wunderground v.1.15,2013-10-18 10:05:00,
2013-10-18 06:15:00,40.4,40.1,30.12,WSW,255,0.0,9.0,99,0.00,,,0.00,Wunderground v.1.15,2013-10-18 10:15:00,
2013-10-18 06:20:00,40.3,40.0,30.12,WSW,255,0.0,9.0,99,0.00,,,0.00,Wunderground v.1.15,2013-10-18 10:20:00,
2013-10-18 06:25:00,40.2,39.9,30.12,WSW,255,0.0,9.0,99,0.00,,,0.00,Wunderground v.1.15,2013-10-18 10:25:00,
2013-10-18 06:30:00,40.1,39.8,30.12,WSW,255,0.0,9.0,99,0.00,,,0.00,Wunderground v.1.15,2013-10-18 10:30:00,
2013-10-18 06:35:00,40.1,39.8,30.12,WSW,255,0.0,9.0,99,0.00,,,0.00,Wunderground v.1.15,2013-10-18 10:35:00,
2013-10-18 06:40:00,40.0,39.7,30.12,WSW,255,0.0,9.0,99,0.00,,,0.00,Wunderground v.1.15,2013-10-18 10:40:00,
2013-10-18 06:45:00,40.0,39.7,30.12,WSW,255,0.0,9.0,99,0.00,,,0.00,Wunderground v.1.15,2013-10-18 10:45:00,
2013-10-18 06:50:00,39.9,39.6,30.13,WSW,255,0.0,9.0,99,0.00,,,0.00,Wunderground v.1.15,2013-10-18 10:50:00,
2013-10-18 06:55:00,39.9,39.6,30.13,WSW,255,0.0,9.0,99,0.00,,,0.00,Wunderground v.1.15,2013-10-18 10:55:00,
2013-10-18 07:00:00,39.9,39.6,30.13,WSW,255,0.0,9.0,99,0.00,,,0.00,Wunderground v.1.15,2013-10-18 11:00:00,
2013-10-18 07:05:00,39.9,39.6,30.13,WSW,255,0.0,9.0,99,0.00,,,0.00,Wunderground v.1.15,2013-10-18 11:05:00,
2013-10-18 07:10:00,39.9,39.6,30.13,WSW,255,0.0,9.0,99,0.00,,,0.00,Wunderground v.1.15,2013-10-18 11:10:00,
2013-10-18 07:20:00,39.6,39.3,30.13,WSW,255,0.0,9.0,99,0.00,,,0.00,Wunderground v.1.15,2013-10-18 11:20:00,
2013-10-18 07:25:00,39.5,39.2,30.13,WSW,255,0.0,9.0,99,0.00,,,0.00,Wunderground v.1.15,2013-10-18 11:25:00,
2013-10-18 07:30:00,39.4,39.1,30.14,WSW,255,0.0,9.0,99,0.00,,,0.00,Wunderground v.1.15,2013-10-18 11:30:00,
2013-10-18 07:34:00,39.3,39.0,30.14,WSW,255,0.0,9.0,99,0.00,,,0.00,Wunderground v.1.15,2013-10-18 11:34:00,
2013-10-18 07:40:00,39.1,38.8,30.14,WSW,255,0.0,9.0,99,0.00,,,0.00,Wunderground v.1.15,2013-10-18 11:40:00,
2013-10-18 07:45:00,39.0,38.7,30.14,WSW,255,0.0,9.0,99,0.00,,,0.00,Wunderground v.1.15,2013-10-18 11:45:00,
2013-10-18 07:50:00,38.9,38.6,30.14,WSW,255,0.0,9.0,99,0.00,,,0.00,Wunderground v.1.15,2013-10-18 11:50:00,
2013-10-18 08:00:00,38.9,38.6,30.14,WSW,255,0.0,9.0,99,0.00,,,0.00,Wunderground v.1.15,2013-10-18 12:00:00,
2013-10-18 08:05:00,39.0,38.7,30.15,WSW,255,0.0,9.0,99,0.00,,,0.00,Wunderground v.1.15,2013-10-18 12:05:00,
2013-10-18 08:15:00,38.9,38.6,30.15,WSW,255,0.0,9.0,99,0.00,,,0.00,Wunderground v.1.15,2013-10-18 12:15:00,
2013-10-18 08:20:00,39.0,38.7,30.15,WSW,255,0.0,9.0,99,0.00,,,0.00,Wunderground v.1.15,2013-10-18 12:20:00,
2013-10-18 08:25:00,39.1,38.8,30.15,WSW,255,0.0,9.0,99,0.00,,,0.00,Wunderground v.1.15,2013-10-18 12:25:00,
2013-10-18 08:30:00,39.2,38.9,30.15,WSW,255,0.0,9.0,99,0.00,,,0.00,Wunderground v.1.15,2013-10-18 12:30:00,
2013-10-18 08:35:00,39.3,39.0,30.15,WSW,255,0.0,9.0,99,0.00,,,0.00,Wunderground v.1.15,2013-10-18 12:35:00,
2013-10-18 08:40:00,39.4,39.1,30.16,WSW,255,0.0,9.0,99,0.00,,,0.00,Wunderground v.1.15,2013-10-18 12:40:00,
2013-10-18 08:45:00,39.7,39.4,30.16,WSW,255,0.0,9.0,99,0.00,,,0.00,Wunderground v.1.15,2013-10-18 12:45:00,
2013-10-18 08:50:00,39.9,39.6,30.16,WSW,255,0.0,9.0,99,0.00,,,0.00,Wunderground v.1.15,2013-10-18 12:50:00,
2013-10-18 08:55:00,40.2,39.9,30.16,WSW,255,0.0,9.0,99,0.00,,,0.00,Wunderground v.1.15,2013-10-18 12:55:00,
2013-10-18 09:00:00,40.6,40.3,30.16,WSW,255,0.0,9.0,99,0.00,,,0.00,Wunderground v.1.15,2013-10-18 13:00:00,
2013-10-18 09:05:00,40.9,40.6,30.16,WSW,255,0.0,9.0,99,0.00,,,0.00,Wunderground v.1.15,2013-10-18 13:05:00,
2013-10-18 09:10:00,41.1,40.8,30.17,WSW,255,0.0,9.0,99,0.00,,,0.00,Wunderground v.1.15,2013-10-18 13:10:00,
2013-10-18 09:15:00,41.3,41.3,30.17,WSW,255,0.0,9.0,100,0.00,,,0.00,Wunderground v.1.15,2013-10-18 13:15:00,
2013-10-18 09:20:00,41.6,41.6,30.17,WSW,240,0.0,9.0,100,0.00,,,0.00,Wunderground v.1.15,2013-10-18 13:20:00,
2013-10-18 09:25:00,41.9,41.6,30.17,WSW,240,0.0,9.0,99,0.00,,,0.00,Wunderground v.1.15,2013-10-18 13:25:00,
2013-10-18 09:30:00,42.4,42.1,30.17,WSW,240,0.0,9.0,99,0.00,,,0.00,Wunderground v.1.15,2013-10-18 13:30:00,
2013-10-18 09:40:00,43.2,43.2,30.17,WSW,240,0.0,9.0,100,0.00,,,0.00,Wunderground v.1.15,2013-10-18 13:40:00,
2013-10-18 09:45:00,43.7,43.7,30.17,WSW,240,0.0,9.0,100,0.00,,,0.00,Wunderground v.1.15,2013-10-18 13:45:00,
2013-10-18 09:50:00,44.0,44.0,30.17,WSW,240,0.0,9.0,100,0.00,,,0.00,Wunderground v.1.15,2013-10-18 13:50:00,
2013-10-18 09:55:00,44.2,44.2,30.17,WSW,240,0.0,9.0,100,0.00,,,0.00,Wunderground v.1.15,2013-10-18 13:55:00,
2013-10-18 10:00:00,44.7,44.7,30.17,WSW,240,0.0,9.0,100,0.00,,,0.00,Wunderground v.1.15,2013-10-18 14:00:00,
2013-10-18 10:05:00,45.3,45.3,30.17,WSW,240,0.0,9.0,100,0.00,,,0.00,Wunderground v.1.15,2013-10-18 14:05:00,
2013-10-18 10:10:00,45.9,45.9,30.18,WSW,240,0.0,9.0,100,0.00,,,0.00,Wunderground v.1.15,2013-10-18 14:10:00,
2013-10-18 10:20:00,46.0,46.0,30.18,WSW,240,0.0,9.0,100,0.00,,,0.00,Wunderground v.1.15,2013-10-18 14:20:00,
2013-10-18 10:25:00,46.6,46.6,30.18,WSW,240,0.0,9.0,100,0.00,,,0.00,Wunderground v.1.15,2013-10-18 14:25:00,
2013-10-18 10:30:00,47.0,47.0,30.18,WSW,240,0.0,9.0,100,0.00,,,0.00,Wunderground v.1.15,2013-10-18 14:30:00,
2013-10-18 10:35:00,47.1,47.1,30.18,WSW,240,0.0,9.0,100,0.00,,,0.00,Wunderground v.1.15,2013-10-18 14:35:00,
2013-10-18 10:40:00,47.5,47.5,30.18,WSW,240,0.0,9.0,100,0.00,,,0.00,Wunderground v.1.15,2013-10-18 14:40:00,
2013-10-18 10:45:00,47.8,47.8,30.18,WSW,240,0.0,9.0,100,0.00,,,0.00,Wunderground v.1.15,2013-10-18 14:45:00,
2013-10-18 10:50:00,48.3,48.3,30.18,WSW,255,0.0,9.0,100,0.00,,,0.00,Wunderground v.1.15,2013-10-18 14:50:00,
2013-10-18 10:55:00,48.8,48.8,30.18,SSW,210,0.0,9.0,100,0.00,,,0.00,Wunderground v.1.15,2013-10-18 14:55:00,
2013-10-18 11:00:00,49.5,49.5,30.18,SW,216,0.0,9.0,100,0.00,,,0.00,Wunderground v.1.15,2013-10-18 15:00:00,
2013-10-18 11:10:00,50.3,50.3,30.18,SW,219,0.0,9.0,100,0.00,,,0.00,Wunderground v.1.15,2013-10-18 15:10:00,
2013-10-18 11:15:00,50.7,50.7,30.18,SSW,203,1.0,9.0,100,0.00,,,0.00,Wunderground v.1.15,2013-10-18 15:15:00,
2013-10-18 11:20:00,51.3,51.3,30.18,SSW,195,1.0,9.0,100,0.00,,,0.00,Wunderground v.1.15,2013-10-18 15:20:00,
2013-10-18 11:25:00,52.0,51.5,30.18,SW,225,1.0,9.0,98,0.00,,,0.00,Wunderground v.1.15,2013-10-18 15:25:00,
2013-10-18 11:30:00,52.7,51.3,30.18,West,269,0.0,9.0,95,0.00,,,0.00,Wunderground v.1.15,2013-10-18 15:30:00,
2013-10-18 11:35:00,53.8,52.7,30.18,West,279,0.0,9.0,96,0.00,,,0.00,Wunderground v.1.15,2013-10-18 15:35:00,
2013-10-18 11:44:00,55.3,51.8,30.17,West,280,0.0,9.0,88,0.00,,,0.00,Wunderground v.1.15,2013-10-18 15:44:00,
2013-10-18 11:50:00,55.6,51.8,30.17,WNW,298,1.0,1.0,87,0.00,,,0.00,Wunderground v.1.15,2013-10-18 15:50:00,
2013-10-18 11:55:00,56.2,51.4,30.17,WNW,294,0.0,9.0,84,0.00,,,0.00,Wunderground v.1.15,2013-10-18 15:55:00,
2013-10-18 12:00:00,56.7,51.6,30.17,West,269,0.0,9.0,83,0.00,,,0.00,Wunderground v.1.15,2013-10-18 16:00:00,
2013-10-18 12:05:00,57.0,51.2,30.17,SSW,203,0.0,9.0,81,0.00,,,0.00,Wunderground v.1.15,2013-10-18 16:05:00,
2013-10-18 12:10:00,57.6,52.5,30.17,SW,236,1.0,1.0,83,0.00,,,0.00,Wunderground v.1.15,2013-10-18 16:10:00,
2013-10-18 12:15:00,57.2,50.7,30.17,SW,226,2.0,2.0,79,0.00,,,0.00,Wunderground v.1.15,2013-10-18 16:15:00,
2013-10-18 12:20:00,57.1,51.3,30.16,WSW,246,2.0,2.0,81,0.00,,,0.00,Wunderground v.1.15,2013-10-18 16:20:00,
2013-10-18 12:30:00,58.3,49.7,30.16,NNW,328,0.0,9.0,73,0.00,,,0.00,Wunderground v.1.15,2013-10-18 16:30:00,
2013-10-18 12:40:00,58.5,49.1,30.16,West,259,1.0,1.0,71,0.00,,,0.00,Wunderground v.1.15,2013-10-18 16:40:00,
2013-10-18 12:45:00,58.3,48.9,30.16,SW,233,1.0,9.0,71,0.00,,,0.00,Wunderground v.1.15,2013-10-18 16:45:00,
2013-10-18 12:50:00,59.2,48.6,30.16,SW,216,0.0,9.0,68,0.00,,,0.00,Wunderground v.1.15,2013-10-18 16:50:00,
2013-10-18 12:54:00,59.1,47.7,30.15,WNW,287,0.0,9.0,66,0.00,,,0.00,Wunderground v.1.15,2013-10-18 16:54:00,
2013-10-18 13:00:00,59.0,47.7,30.15,WSW,255,0.0,9.0,66,0.00,,,0.00,Wunderground v.1.15,2013-10-18 17:00:00,
2013-10-18 13:05:00,59.4,49.6,30.15,SW,233,0.0,9.0,70,0.00,,,0.00,Wunderground v.1.15,2013-10-18 17:05:00,
2013-10-18 13:15:00,59.5,46.0,30.15,WNW,282,1.0,9.0,61,0.00,,,0.00,Wunderground v.1.15,2013-10-18 17:15:00,
2013-10-18 13:20:00,59.5,46.9,30.15,WNW,284,1.0,1.0,63,0.00,,,0.00,Wunderground v.1.15,2013-10-18 17:20:00,
2013-10-18 13:25:00,59.9,47.7,30.14,West,275,1.0,9.0,64,0.00,,,0.00,Wunderground v.1.15,2013-10-18 17:25:00,
2013-10-18 13:30:00,60.5,45.6,30.14,West,275,0.0,9.0,58,0.00,,,0.00,Wunderground v.1.15,2013-10-18 17:30:00,
2013-10-18 13:35:00,60.6,46.2,30.14,SW,227,1.0,9.0,59,0.00,,,0.00,Wunderground v.1.15,2013-10-18 17:35:00,
2013-10-18 13:40:00,61.0,47.9,30.14,NE,50,1.0,9.0,62,0.00,,,0.00,Wunderground v.1.15,2013-10-18 17:40:00,
2013-10-18 13:45:00,61.7,48.1,30.13,WSW,258,1.0,9.0,61,0.00,,,0.00,Wunderground v.1.15,2013-10-18 17:45:00,
2013-10-18 13:55:00,61.2,48.9,30.13,WSW,255,1.0,9.0,64,0.00,,,0.00,Wunderground v.1.15,2013-10-18 17:55:00,
2013-10-18 14:00:00,60.2,47.6,30.13,WSW,241,2.0,2.0,63,0.00,,,0.00,Wunderground v.1.15,2013-10-18 18:00:00,
2013-10-18 14:05:00,60.3,47.2,30.13,NW,310,1.0,9.0,62,0.00,,,0.00,Wunderground v.1.15,2013-10-18 18:05:00,
2013-10-18 14:15:00,61.6,49.7,30.12,WSW,241,1.0,9.0,65,0.00,,,0.00,Wunderground v.1.15,2013-10-18 18:15:00,
2013-10-18 14:20:00,61.3,48.6,30.12,South,185,1.0,1.0,63,0.00,,,0.00,Wunderground v.1.15,2013-10-18 18:20:00,
2013-10-18 14:25:00,61.8,47.3,30.11,WSW,258,1.0,9.0,59,0.00,,,0.00,Wunderground v.1.15,2013-10-18 18:25:00,
2013-10-18 14:30:00,62.2,47.2,30.11,SSE,166,1.0,1.0,58,0.00,,,0.00,Wunderground v.1.15,2013-10-18 18:30:00,
2013-10-18 14:35:00,62.9,47.0,30.11,WNW,283,1.0,9.0,56,0.00,,,0.00,Wunderground v.1.15,2013-10-18 18:35:00,
2013-10-18 14:40:00,62.1,47.6,30.11,WSW,244,3.0,3.0,59,0.00,,,0.00,Wunderground v.1.15,2013-10-18 18:40:00,
2013-10-18 14:44:00,62.3,47.8,30.11,WSW,251,3.0,9.0,59,0.00,,,0.00,Wunderground v.1.15,2013-10-18 18:44:00,
2013-10-18 14:50:00,61.8,46.4,30.11,SW,230,3.0,9.0,57,0.00,,,0.00,Wunderground v.1.15,2013-10-18 18:50:00,
2013-10-18 14:55:00,61.8,46.4,30.10,SSW,209,3.0,9.0,57,0.00,,,0.00,Wunderground v.1.15,2013-10-18 18:55:00,
2013-10-18 15:00:00,61.9,46.5,30.10,SSW,200,2.0,9.0,57,0.00,,,0.00,Wunderground v.1.15,2013-10-18 19:00:00,
2013-10-18 15:05:00,61.9,47.9,30.10,WSW,244,3.0,9.0,60,0.00,,,0.00,Wunderground v.1.15,2013-10-18 19:05:00,
2013-10-18 15:10:00,62.1,46.2,30.10,WNW,292,2.0,2.0,56,0.00,,,0.00,Wunderground v.1.15,2013-10-18 19:10:00,
2013-10-18 15:15:00,62.9,45.5,30.10,WSW,241,1.0,9.0,53,0.00,,,0.00,Wunderground v.1.15,2013-10-18 19:15:00,
2013-10-18 15:20:00,63.2,48.2,30.09,WNW,288,1.0,9.0,58,0.00,,,0.00,Wunderground v.1.15,2013-10-18 19:20:00,
2013-10-18 15:25:00,63.0,46.6,30.09,NW,315,1.0,9.0,55,0.00,,,0.00,Wunderground v.1.15,2013-10-18 19:25:00,
2013-10-18 15:30:00,62.8,46.9,30.09,SW,229,1.0,1.0,56,0.00,,,0.00,Wunderground v.1.15,2013-10-18 19:30:00,
2013-10-18 15:35:00,62.6,46.7,30.09,South,182,2.0,2.0,56,0.00,,,0.00,Wunderground v.1.15,2013-10-18 19:35:00,
2013-10-18 15:40:00,62.8,45.9,30.09,SW,222,1.0,9.0,54,0.00,,,0.00,Wunderground v.1.15,2013-10-18 19:40:00,
2013-10-18 15:45:00,62.9,46.5,30.09,West,275,1.0,9.0,55,0.00,,,0.00,Wunderground v.1.15,2013-10-18 19:45:00,
2013-10-18 15:49:00,63.6,46.6,30.08,SW,229,0.0,9.0,54,0.00,,,0.00,Wunderground v.1.15,2013-10-18 19:49:00,
2013-10-18 15:55:00,64.0,47.0,30.08,North,355,1.0,9.0,54,0.00,,,0.00,Wunderground v.1.15,2013-10-18 19:55:00,
2013-10-18 16:00:00,63.8,46.3,30.08,SW,221,0.0,9.0,53,0.00,,,0.00,Wunderground v.1.15,2013-10-18 20:00:00,
2013-10-18 16:05:00,64.0,47.5,30.08,West,261,0.0,9.0,55,0.00,,,0.00,Wunderground v.1.15,2013-10-18 20:05:00,
2013-10-18 16:15:00,64.3,45.8,30.08,NNW,332,1.0,9.0,51,0.00,,,0.00,Wunderground v.1.15,2013-10-18 20:15:00,
2013-10-18 16:20:00,64.9,47.9,30.08,North,349,0.0,9.0,54,0.00,,,0.00,Wunderground v.1.15,2013-10-18 20:20:00,
2013-10-18 16:25:00,64.9,46.3,30.08,NNW,346,0.0,9.0,51,0.00,,,0.00,Wunderground v.1.15,2013-10-18 20:25:00,
2013-10-18 16:30:00,65.1,47.5,30.07,West,268,0.0,9.0,53,0.00,,,0.00,Wunderground v.1.15,2013-10-18 20:30:00,
2013-10-18 16:35:00,65.0,46.4,30.07,NW,304,0.0,9.0,51,0.00,,,0.00,Wunderground v.1.15,2013-10-18 20:35:00,
2013-10-18 16:39:00,64.6,46.6,30.07,NNW,348,1.0,1.0,52,0.00,,,0.00,Wunderground v.1.15,2013-10-18 20:39:00,
2013-10-18 16:45:00,64.1,45.6,30.07,WSW,248,1.0,9.0,51,0.00,,,0.00,Wunderground v.1.15,2013-10-18 20:45:00,
2013-10-18 16:55:00,63.6,47.1,30.07,WNW,295,0.0,9.0,55,0.00,,,0.00,Wunderground v.1.15,2013-10-18 20:55:00,
2013-10-18 17:00:00,63.7,46.7,30.07,North,351,0.0,9.0,54,0.00,,,0.00,Wunderground v.1.15,2013-10-18 21:00:00,
2013-10-18 17:05:00,64.1,46.6,30.07,West,273,0.0,9.0,53,0.00,,,0.00,Wunderground v.1.15,2013-10-18 21:05:00,
2013-10-18 17:10:00,63.4,46.5,30.07,WSW,240,1.0,1.0,54,0.00,,,0.00,Wunderground v.1.15,2013-10-18 21:10:00,
2013-10-18 17:15:00,63.6,46.6,30.06,WSW,240,1.0,9.0,54,0.00,,,0.00,Wunderground v.1.15,2013-10-18 21:15:00,
2013-10-18 17:20:00,63.5,48.5,30.07,SSW,198,0.0,9.0,58,0.00,,,0.00,Wunderground v.1.15,2013-10-18 21:20:00,
2013-10-18 17:25:00,63.3,46.4,30.06,WSW,247,1.0,9.0,54,0.00,,,0.00,Wunderground v.1.15,2013-10-18 21:25:00,
2013-10-18 17:29:00,62.9,46.0,30.06,West,259,1.0,1.0,54,0.00,,,0.00,Wunderground v.1.15,2013-10-18 21:29:00,
2013-10-18 17:35:00,62.5,46.1,30.06,SW,218,1.0,9.0,55,0.00,,,0.00,Wunderground v.1.15,2013-10-18 21:35:00,
2013-10-18 17:40:00,62.5,46.6,30.06,West,277,1.0,1.0,56,0.00,,,0.00,Wunderground v.1.15,2013-10-18 21:40:00,
2013-10-18 17:44:00,62.4,47.0,30.06,SW,234,0.0,9.0,57,0.00,,,0.00,Wunderground v.1.15,2013-10-18 21:44:00,
2013-10-18 17:50:00,62.2,45.3,30.06,WSW,244,0.0,9.0,54,0.00,,,0.00,Wunderground v.1.15,2013-10-18 21:50:00,
2013-10-18 17:55:00,62.1,46.2,30.06,WSW,252,0.0,9.0,56,0.00,,,0.00,Wunderground v.1.15,2013-10-18 21:55:00,
2013-10-18 18:00:00,61.9,46.0,30.07,SW,229,0.0,9.0,56,0.00,,,0.00,Wunderground v.1.15,2013-10-18 22:00:00,
2013-10-18 18:05:00,61.8,46.4,30.07,West,268,0.0,9.0,57,0.00,,,0.00,Wunderground v.1.15,2013-10-18 22:05:00,
2013-10-18 18:10:00,61.9,46.5,30.07,SW,226,0.0,9.0,57,0.00,,,0.00,Wunderground v.1.15,2013-10-18 22:10:00,
2013-10-18 18:15:00,61.4,46.5,30.07,WSW,250,0.0,9.0,58,0.00,,,0.00,Wunderground v.1.15,2013-10-18 22:15:00,
2013-10-18 18:20:00,61.2,46.3,30.07,WSW,250,0.0,9.0,58,0.00,,,0.00,Wunderground v.1.15,2013-10-18 22:20:00,
2013-10-18 18:25:00,60.7,46.3,30.07,WSW,257,0.0,9.0,59,0.00,,,0.00,Wunderground v.1.15,2013-10-18 22:25:00,
2013-10-18 18:30:00,60.3,45.9,30.07,WSW,257,0.0,9.0,59,0.00,,,0.00,Wunderground v.1.15,2013-10-18 22:30:00,
2013-10-18 18:35:00,60.0,46.1,30.07,WSW,257,0.0,9.0,60,0.00,,,0.00,Wunderground v.1.15,2013-10-18 22:35:00,
2013-10-18 18:40:00,59.7,46.2,30.07,WSW,257,0.0,9.0,61,0.00,,,0.00,Wunderground v.1.15,2013-10-18 22:40:00,
2013-10-18 18:45:00,59.5,46.0,30.07,WSW,257,0.0,9.0,61,0.00,,,0.00,Wunderground v.1.15,2013-10-18 22:45:00,
2013-10-18 18:50:00,59.3,45.8,30.07,WSW,257,0.0,9.0,61,0.00,,,0.00,Wunderground v.1.15,2013-10-18 22:50:00,
2013-10-18 18:55:00,59.1,45.7,30.07,WSW,257,0.0,9.0,61,0.00,,,0.00,Wunderground v.1.15,2013-10-18 22:55:00,
2013-10-18 19:00:00,59.0,46.0,30.07,WSW,257,0.0,9.0,62,0.00,,,0.00,Wunderground v.1.15,2013-10-18 23:00:00,
2013-10-18 19:05:00,58.8,46.2,30.07,WSW,257,0.0,9.0,63,0.00,,,0.00,Wunderground v.1.15,2013-10-18 23:05:00,
2013-10-18 19:10:00,58.5,46.4,30.08,WSW,257,0.0,9.0,64,0.00,,,0.00,Wunderground v.1.15,2013-10-18 23:10:00,
2013-10-18 19:15:00,58.2,46.1,30.07,West,263,0.0,9.0,64,0.00,,,0.00,Wunderground v.1.15,2013-10-18 23:15:00,
2013-10-18 19:20:00,58.0,45.9,30.08,West,263,0.0,9.0,64,0.00,,,0.00,Wunderground v.1.15,2013-10-18 23:20:00,
2013-10-18 19:30:00,57.5,46.2,30.08,West,263,0.0,9.0,66,0.00,,,0.00,Wunderground v.1.15,2013-10-18 23:30:00,
2013-10-18 19:35:00,57.3,46.0,30.08,West,263,0.0,9.0,66,0.00,,,0.00,Wunderground v.1.15,2013-10-18 23:35:00,
2013-10-18 19:40:00,57.1,45.8,30.08,West,263,0.0,9.0,66,0.00,,,0.00,Wunderground v.1.15,2013-10-18 23:40:00,
2013-10-18 19:50:00,56.7,45.9,30.08,West,263,0.0,9.0,67,0.00,,,0.00,Wunderground v.1.15,2013-10-18 23:50:00,
2013-10-18 19:55:00,56.5,46.1,30.08,West,263,0.0,9.0,68,0.00,,,0.00,Wunderground v.1.15,2013-10-18 23:55:00,
2013-10-18 20:00:00,56.3,46.3,30.08,West,263,0.0,9.0,69,0.00,,,0.00,Wunderground v.1.15,2013-10-19 00:00:00,
2013-10-18 20:05:00,56.0,46.0,30.08,West,263,0.0,9.0,69,0.00,,,0.00,Wunderground v.1.15,2013-10-19 00:05:00,
2013-10-18 20:10:00,55.7,45.7,30.08,West,263,0.0,9.0,69,0.00,,,0.00,Wunderground v.1.15,2013-10-19 00:10:00,
2013-10-18 20:20:00,55.5,45.9,30.08,West,263,0.0,9.0,70,0.00,,,0.00,Wunderground v.1.15,2013-10-19 00:20:00,
2013-10-18 20:25:00,55.6,45.6,30.08,West,263,0.0,9.0,69,0.00,,,0.00,Wunderground v.1.15,2013-10-19 00:25:00,
2013-10-18 20:29:00,55.2,46.7,30.08,West,261,0.0,9.0,73,0.00,,,0.00,Wunderground v.1.15,2013-10-19 00:29:00,
2013-10-18 20:35:00,53.8,46.8,30.08,West,261,0.0,9.0,77,0.00,,,0.00,Wunderground v.1.15,2013-10-19 00:35:00,
2013-10-18 20:40:00,53.0,46.7,30.08,West,261,0.0,9.0,79,0.00,,,0.00,Wunderground v.1.15,2013-10-19 00:40:00,
2013-10-18 20:45:00,52.5,45.8,30.08,West,261,0.0,9.0,78,0.00,,,0.00,Wunderground v.1.15,2013-10-19 00:45:00,
2013-10-18 20:50:00,52.3,45.6,30.08,West,261,0.0,9.0,78,0.00,,,0.00,Wunderground v.1.15,2013-10-19 00:50:00,
2013-10-18 20:55:00,52.4,45.7,30.08,West,261,0.0,9.0,78,0.00,,,0.00,Wunderground v.1.15,2013-10-19 00:55:00,
2013-10-18 21:00:00,52.7,46.4,30.08,West,261,0.0,9.0,79,0.00,,,0.00,Wunderground v.1.15,2013-10-19 01:00:00,
2013-10-18 21:05:00,52.6,45.9,30.08,West,261,0.0,9.0,78,0.00,,,0.00,Wunderground v.1.15,2013-10-19 01:05:00,
2013-10-18 21:10:00,52.4,46.1,30.08,West,261,0.0,9.0,79,0.00,,,0.00,Wunderground v.1.15,2013-10-19 01:10:00,
2013-10-18 21:15:00,52.3,46.0,30.08,West,261,0.0,9.0,79,0.00,,,0.00,Wunderground v.1.15,2013-10-19 01:15:00,
2013-10-18 21:20:00,52.2,45.9,30.09,West,261,0.0,9.0,79,0.00,,,0.00,Wunderground v.1.15,2013-10-19 01:20:00,
2013-10-18 21:25:00,52.1,46.1,30.08,West,261,0.0,9.0,80,0.00,,,0.00,Wunderground v.1.15,2013-10-19 01:25:00,
2013-10-18 21:30:00,52.1,46.8,30.09,West,261,0.0,9.0,82,0.00,,,0.00,Wunderground v.1.15,2013-10-19 01:30:00,
2013-10-18 21:40:00,51.3,46.3,30.08,West,261,0.0,9.0,83,0.00,,,0.00,Wunderground v.1.15,2013-10-19 01:40:00,
2013-10-18 21:45:00,51.1,46.4,30.08,West,261,0.0,9.0,84,0.00,,,0.00,Wunderground v.1.15,2013-10-19 01:45:00,
2013-10-18 21:50:00,50.9,46.6,30.08,West,261,0.0,9.0,85,0.00,,,0.00,Wunderground v.1.15,2013-10-19 01:50:00,
2013-10-18 21:55:00,51.0,47.0,30.09,West,261,0.0,9.0,86,0.00,,,0.00,Wunderground v.1.15,2013-10-19 01:55:00,
2013-10-18 22:00:00,51.4,47.0,30.09,West,261,0.0,9.0,85,0.00,,,0.00,Wunderground v.1.15,2013-10-19 02:00:00,
2013-10-18 22:05:00,51.6,47.2,30.09,West,261,0.0,9.0,85,0.00,,,0.00,Wunderground v.1.15,2013-10-19 02:05:00,
2013-10-18 22:10:00,51.8,47.1,30.09,West,261,0.0,9.0,84,0.00,,,0.00,Wunderground v.1.15,2013-10-19 02:10:00,
2013-10-18 22:15:00,51.9,47.2,30.09,West,261,0.0,9.0,84,0.00,,,0.00,Wunderground v.1.15,2013-10-19 02:15:00,
2013-10-18 22:20:00,51.7,47.0,30.09,West,261,0.0,9.0,84,0.00,,,0.00,Wunderground v.1.15,2013-10-19 02:20:00,
2013-10-18 22:25:00,51.5,47.1,30.09,West,261,0.0,9.0,85,0.00,,,0.00,Wunderground v.1.15,2013-10-19 02:25:00,
2013-10-18 22:30:00,51.2,47.2,30.09,West,261,0.0,9.0,86,0.00,,,0.00,Wunderground v.1.15,2013-10-19 02:30:00,
2013-10-18 22:35:00,50.8,46.8,30.09,West,261,0.0,9.0,86,0.00,,,0.00,Wunderground v.1.15,2013-10-19 02:35:00,
2013-10-18 22:40:00,50.5,46.8,30.09,West,261,0.0,9.0,87,0.00,,,0.00,Wunderground v.1.15,2013-10-19 02:40:00,
2013-10-18 22:49:00,50.3,47.2,30.08,West,261,0.0,9.0,89,0.00,,,0.00,Wunderground v.1.15,2013-10-19 02:49:00,
2013-10-18 22:55:00,50.2,46.8,30.08,West,261,0.0,9.0,88,0.00,,,0.00,Wunderground v.1.15,2013-10-19 02:55:00,
2013-10-18 23:00:00,50.1,47.0,30.08,West,261,0.0,9.0,89,0.00,,,0.00,Wunderground v.1.15,2013-10-19 03:00:00,
2013-10-18 23:05:00,50.1,47.3,30.08,West,261,0.0,9.0,90,0.00,,,0.00,Wunderground v.1.15,2013-10-19 03:05:00,
2013-10-18 23:10:00,50.0,47.2,30.08,West,261,0.0,9.0,90,0.00,,,0.00,Wunderground v.1.15,2013-10-19 03:10:00,
2013-10-18 23:15:00,49.7,46.6,30.08,West,261,0.0,9.0,89,0.00,,,0.00,Wunderground v.1.15,2013-10-19 03:15:00,
2013-10-18 23:20:00,49.5,46.7,30.08,West,261,0.0,9.0,90,0.00,,,0.00,Wunderground v.1.15,2013-10-19 03:20:00,
2013-10-18 23:25:00,49.5,47.3,30.08,West,261,0.0,9.0,92,0.00,,,0.00,Wunderground v.1.15,2013-10-19 03:25:00,
2013-10-18 23:30:00,49.6,47.4,30.08,West,261,0.0,9.0,92,0.00,,,0.00,Wunderground v.1.15,2013-10-19 03:30:00,
2013-10-18 23:35:00,49.7,47.2,30.08,West,261,0.0,9.0,91,0.00,,,0.00,Wunderground v.1.15,2013-10-19 03:35:00,
2013-10-18 23:40:00,49.7,47.2,30.07,WSW,255,0.0,9.0,91,0.00,,,0.00,Wunderground v.1.15,2013-10-19 03:40:00,
2013-10-18 23:45:00,49.7,47.2,30.07,WSW,255,0.0,9.0,91,0.00,,,0.00,Wunderground v.1.15,2013-10-19 03:45:00,
2013-10-18 23:50:00,49.6,47.1,30.07,WSW,255,0.0,9.0,91,0.00,,,0.00,Wunderground v.1.15,2013-10-19 03:50:00,
2013-10-18 23:55:00,49.3,46.5,30.07,WSW,255,0.0,9.0,90,0.00,,,0.00,Wunderground v.1.15,2013-10-19 03:55:00,